Погода в Славе

Россия / Липецкая область     52°18′25″N   40°22′29″E
темп.,
°C
ветер,
м/с
пор.,
м/с
влажн.,
%
обл.,
%
осадки,
мм/ч
давл.,
гПа
погр.,
м
9 мая, вс
вс900:00+12ююз5998100 6.9 1005433
03:00+11юз3797100 11.2 1006307
06:00+7зюз51093100 0.9 1007488
09:00+5з71094100 1.0 1009645
12:00+5зсз81191100 0.1 1011735
15:00+5сз81291100 0.2 1014860
18:00+6сз7128348 0.1 10161063
21:00+6ссз61384100 0.2 10181249
10 мая, пн
пн1000:00+6ссз71282100 0.0 1019957
03:00+5ссз71485100 0.0 1020877
06:00+5с81581100 0.0 1021744
09:00+8с91476100 0.0 1021953
12:00+9ссв101476100 0.0 1021978
15:00+7ссв91783100 0.6 1021736
18:00+8ссв91889100 1.3 1021675
21:00+8ссв92089100 2.3 1020612
11 мая, вт
вт1100:00+8ссв8189088 0.1 1020573
03:00+9ссв91891100 0.3 1019538
06:00+10св81892100 0.2 1019536
09:00+11всв71392100 0.7 1021829
12:00+14в7107448 0.3 10221130
15:00+16вюв78541 0.3 10231452
18:00+13вюв5970100 0.1 1024477
21:00+10всв3781100 0.1 1024199
12 мая, ср
ср1200:00+10в3782100 0.1 1024210
03:00+9в378397 0.1 1023199
06:00+9в269197 0.0 1023190
09:00+13всв34690 0.0 1023755
12:00+17в335627 0.0 10221376
15:00+18вюв345142 0.0 10211736
18:00+16всв4575100 0.0 1021301
21:00+12в3488100 0.0 102099
13 мая, чт
чт1300:00+12юв229397 0.0 102037
03:00+11в229595 0.0 101935
06:00+13в239673 0.0 1019131
09:00+16в348492 0.0 1018597
12:00+19юв337076 1.1 1018996
15:00+21вюв346066 1.7 10171443
18:00+19вюв467284 0.4 1017358
21:00+15вюв3589100 0.4 101882